Location: Wavehorne
(51.0500°N, 0.8333°E)
Time: 15:04:12
(UTC+00:00)

Aureole 3 Rocket - Pass Details

Date: 20 June 2021
Orbit: 399 x 1739 km, 82.5° (Epoch: 31 July)

Event Time Altitude Azimuth Distance (km) Brightness Sun altitude
Rises 02:19:05 0° 339° (NNW) 2,565 6.8 -9.3°
Reaches altitude 10° 02:21:05 10° 329° (NNW) 1,791 5.8 -9.2°
Maximum altitude 02:24:34 32° 265° (W) 1,089 4.0 -8.9°
Drops below altitude 10° 02:29:02 10° 204° (SSW) 2,339 5.4 -8.5°
Enters shadow 02:29:03 10° 204° (SSW) 2,346 5.4 -8.5°
